Weather in Sokolniki

Russia / Tver Oblast     56°53′47″N   34°02′30″E
temp.,
°C
wind,
m/s
gust,
m/s
humid.,
%
clouds,
%
prec.,
mm/h
press.,
hPa
HPBL,
m
14 august, sun
sun1400:00+16sse1181100 0.0 102211
03:00+15s1183100 0.0 102111
06:00+15sse118199 0.0 102111
09:00+21ese126069 0.0 1021335
12:00+26ese224542 0.0 10201515
15:00+27ese223947 0.0 10201882
18:00+25ese24505 0.0 1019302
21:00+19ese22692 0.0 102015
15 august, mon
mon1500:00+17e22730 0.0 102022
03:00+15e23825 0.0 102048
06:00+15ese23835 0.0 102052
09:00+22se245923 0.0 1020320
12:00+26se3546100 0.0 10211134
15:00+27sse343897 0.0 10201972
18:00+25se015895 0.0 101998
21:00+21e396590 0.1 1020252
16 august, tue
tue1600:00+18e267884 0.1 1020151
03:00+16e25847 0.1 102092
06:00+16ese269094 0.4 1020124
09:00+20ese3868100 0.6 1020326
12:00+26se474283 0.3 10201082
15:00+27se574175 0.3 10191376
18:00+26se474779 0.0 1019903
21:00+20ese396980 0.0 1020183
17 august, wed
wed1700:00+18se26685 0.0 1020109
03:00+16se267265 0.0 102094
06:00+16e257630 0.0 102092
09:00+22e35585 0.0 1019334
12:00+26ese46415 0.0 10191467
15:00+28ese45375 0.0 10181895
18:00+26e35485 0.0 1018476
21:00+20ene38696 0.0 1018135
18 august, thu
thu1800:00+17e247914 0.0 101869
03:00+17e228184 0.0 101918
06:00+16e238136 0.0 101957
09:00+23se2457100 0.0 1018317
12:00+27se233988 0.0 10181196
15:00+28ese2236100 0.0 10181896
18:00+26ese235446 0.0 101778
21:00+20ese22675 0.0 101813